Terminal Aerodrome Forecast
Issued by NWS Pocatello, ID

Home | Current Version | Previous Version | Text Only | Print | Product List | Glossary On
Versions: 1 2 3 4 5 6 7 8 9 10 11 12
950
FTUS45 KPIH 180520
TAFPIH
TAF
KPIH 180520Z 1806/1906 19009KT P6SM SCT200
     FM181000 VRB05KT P6SM FEW200
     FM182000 24010KT P6SM SKC
     FM190200 18006KT P6SM SKC=

USA.gov is the U.S. government's official web portal to all federal, state and local government web resources and services.